Cloud_Cover
74 22 1 33 100 100 100 100 100 83 100 100 100 100 100 100 100 100 100 100 100 100 100 100 100 100 100 100 100 100 94 72 100 100 100 100 100 100 100 100 100 100 100 100
5 1 5 99 99 100 100 100 100 100 100 100 100 100 100 100 100 100 100 100 100 100 100 100 100 100 100 100 94 100 28 89 100 100 100 100 100 100 100 100 100 100 100 100
5 0 22 97 95 80 94 100 100 100 100 100 100 100 100 100 100 100 100 100 100 100 100 100 100 100 100 100 100 100 100 100 100 100 100 100 100 100 100 100 100 100 100 100
76 2 18 73 85 15 64 97 100 100 100 100 100 100 100 100 100 100 100 100 100 100 100 100 100 100 100 100 100 100 100 100 100 100 100 100 100 100 100 100 100 100 100 100
90 93 1 8 5 13 55 100 75 90 94 100 100 100 100 100 100 100 100 100 100 100 100 100 100 100 100 100 100 100 100 100 100 100 100 100 100 100 100 100 100 100 100 100
84 61 80 5 1 0 5 84 93 96 100 100 100 99 100 100 100 100 100 100 100 100 100 100 100 100 100 100 100 100 100 100 100 100 100 100 100 100 100 100 100 100 100 100
99 48 1 1 0 0 15 37 100 77 100 100 100 100 100 100 100 100 100 100 100 100 100 100 100 100 100 100 100 100 100 100 100 100 100 100 100 100 100 100 100 100 100 100
100 33 0 0 0 9 5 5 94 100 100 100 100 100 100 100 100 100 100 100 100 100 100 100 100 100 100 100 100 100 100 100 100 100 100 100 100 100 100 100 100 100 100 100
100 24 0 0 6 5 5 12 94 100 79 100 100 100 100 100 100 100 100 100 100 100 100 100 100 100 100 100 100 100 100 100 100 100 100 100 100 100 100 100 100 100 100 100
79 55 0 0 1 5 5 14 72 86 100 100 100 100 100 100 100 100 100 100 100 100 100 100 100 100 100 100 100 100 100 100 100 100 100 100 100 100 100 100 100 100 100 100
92 64 0 0 5 2 5 25 67 57 95 95 100 100 100 100 100 100 100 100 100 100 100 100 100 100 100 100 100 100 100 100 100 100 100 100 100 100 100 100 100 100 100 100
94 26 6 4 4 5 52 98 97 100 81 8 95 100 100 100 100 100 100 100 100 100 100 100 100 100 100 100 100 100 100 100 100 100 100 100 100 100 100 100 100 100 100 100
83 47 5 5 5 5 90 93 93 98 98 99 68 100 100 100 100 100 100 100 100 100 100 100 100 100 100 100 100 100 100 100 100 100 100 100 100 100 100 100 100 100 100 100
98 36 5 3 5 5 46 72 32 47 47 80 88 76 99 100 100 100 100 100 100 100 100 100 100 100 100 100 100 100 100 100 100 100 100 100 100 100 100 100 100 100 100 100
38 9 5 5 5 5 5 9 52 5 62 79 62 93 87 100 100 100 100 100 100 100 100 100 100 100 100 100 100 100 100 100 100 100 100 100 100 100 100 100 100 100 100 100
21 31 5 48 5 49 10 12 78 46 69 100 98 95 87 66 66 100 100 100 100 100 100 100 100 100 100 100 100 100 100 100 100 100 100 100 100 100 100 100 100 100 100 100
43 51 14 40 30 16 37 84 100 100 94 95 100 95 74 71 5 67 100 100 90 100 100 100 100 100 100 100 100 100 100 100 100 100 100 100 100 100 100 100 100 100 100 100
100 62 78 100 100 99 70 57 76 90 98 100 96 65 58 98 100 100 95 83 100 100 100 99 100 100 100 100 100 100 100 100 100 100 100 100 100 100 100 100 100 100 100 100
100 98 39 92 76 100 100 81 68 88 85 98 90 80 80 77 92 99 74 62 78 100 100 100 98 99 100 100 97 99 100 100 100 100 100 100 100 100 100 100 100 100 100 100
96 82 95 92 9 93 94 49 58 73 75 84 74 47 73 66 71 79 62 99 100 100 86 100 82 84 98 100 100 94 80 96 100 100 100 100 100 100 100 100 100 100 100 100
5 5 12 5 36 8 59 71 75 74 64 100 95 92 94 75 59 5 94 100 76 100 96 77 98 92 88 89 60 72 76 76 100 100 100 100 100 100 100 100 100 100 100 100
6 12 5 5 35 62 26 68 58 59 77 100 80 89 88 71 66 69 66 100 88 100 47 94 89 100 99 70 84 80 78 80 89 94 100 100 100 100 100 100 100 100 100 100
5 5 5 5 6 23 49 68 56 75 99 98 79 84 99 100 100 99 94 61 97 98 84 90 99 100 99 76 80 78 81 84 87 85 88 94 100 100 100 100 100 100 100 100
5 5 5 5 5 59 89 9 63 96 100 100 100 82 96 100 85 68 91 100 99 77 93 100 100 100 100 92 86 88 98 100 93 96 100 100 100 100 100 100 100 100 100 100
5 5 5 5 21 74 62 48 86 100 100 100 100 100 100 100 100 86 100 100 83 70 94 100 100 100 100 99 100 100 100 100 100 100 100 100 100 100 100 100 100 100 100 100
5 5 5 48 72 60 69 79 100 100 100 100 100 100 100 100 100 100 100 100 83 70 99 100 100 100 100 100 100 100 100 100 100 100 100 100 100 100 100 100 100 100 100 100
17 44 44 59 100 90 64 100 100 100 100 100 100 100 100 100 100 100 100 100 82 72 82 94 100 96 100 100 100 100 100 100 100 100 100 100 100 100 100 100 100 100 100 100